DC4AT Weather Reports


Display with metric or nautical units.
time (UTC)temp
F
wind
direction
speed
MPH
gust
MPH
rain 1hr
in
rain 24hr
in
rain mn
in
humidity
%
barometer
mb
20260508163323 52 71 0.0 2.0 0.00 0.04 0.03 81 1020.1
20260508162323 52 71 1.0 3.0 0.00 0.04 0.03 81 1020.1
20260508161323 52 71 0.0 3.0 0.00 0.04 0.03 81 1020.1
20260508160323 52 71 1.0 3.0 0.00 0.04 0.03 81 1020.2
20260508155323 52 71 2.0 3.0 0.00 0.04 0.03 80 1020.1
20260508154323 52 70 1.0 4.0 0.00 0.04 0.03 80 1020.1
20260508153323 52 74 2.0 5.0 0.00 0.05 0.03 79 1020.1
20260508152323 52 70 3.0 5.0 0.00 0.05 0.03 80 1020.1
20260508151323 52 63 2.0 5.0 0.00 0.05 0.03 79 1020.2
20260508150323 52 76 1.0 3.0 0.00 0.05 0.03 80 1020.1
20260508145323 52 80 2.0 3.0 0.00 0.05 0.03 80 1020.1
20260508144323 52 102 1.0 2.0 0.00 0.05 0.03 80 1020.2
20260508143323 52 104 1.0 4.0 0.00 0.05 0.03 79 1020.0
20260508142323 52 72 1.0 4.0 0.00 0.05 0.03 79 1020.1
20260508141323 52 62 2.0 5.0 0.00 0.05 0.03 77 1020.1
20260508140323 52 91 2.0 4.0 0.01 0.05 0.03 76 1020.1
20260508135323 53 55 2.0 6.0 0.01 0.05 0.03 75 1020.1
20260508134323 52 154 3.0 5.0 0.01 0.05 0.03 74 1020.1
20260508133323 52 102 2.0 5.0 0.01 0.05 0.03 77 1020.1
20260508132323 52 48 2.0 3.0 0.01 0.05 0.03 77 1020.1
20260508131323 52 45 3.0 4.0 0.01 0.05 0.03 77 1020.2
20260508130323 52 45 2.0 4.0 0.00 0.04 0.02 78 1020.2
20260508125323 52 28 2.0 4.0 0.00 0.04 0.02 79 1020.4
20260508124323 52 64 2.0 5.0 0.00 0.04 0.02 78 1020.4
20260508123323 52 81 2.0 4.0 0.00 0.04 0.02 79 1020.4
20260508122323 52 92 3.0 5.0 0.00 0.04 0.02 78 1020.4
20260508121323 52 80 1.0 0.0 0.00 0.04 0.02 79 1020.4
20260508120323 52 80 3.0 5.0 0.00 0.04 0.02 77 1020.3
20260508115323 52 109 3.0 7.0 0.00 0.04 0.02 79 1020.4
20260508114323 52 80 3.0 4.0 0.00 0.04 0.02 78 1020.4
20260508113324 52 47 2.0 4.0 0.00 0.04 0.02 80 1020.4
20260508112323 51 46 4.0 8.0 0.00 0.04 0.02 80 1020.4
20260508111324 51 31 3.0 8.0 0.00 0.04 0.02 81 1020.4
20260508110324 51 54 3.0 7.0 0.00 0.04 0.02 82 1020.4
20260508105324 51 61 4.0 7.0 0.00 0.04 0.02 81 1020.5
20260508104324 51 78 4.0 7.0 0.00 0.04 0.02 82 1020.5
20260508103324 50 74 4.0 8.0 0.00 0.05 0.02 82 1020.5
20260508102324 50 72 4.0 5.0 0.00 0.05 0.02 84 1020.4
20260508101324 50 175 3.0 10.0 0.00 0.05 0.02 84 1020.4
20260508100324 50 33 3.0 8.0 0.00 0.05 0.02 83 1020.4
20260508095324 50 86 1.0 7.0 0.00 0.05 0.02 84 1020.4
20260508094324 50 43 0.0 3.0 0.00 0.05 0.02 85 1020.5
20260508093324 49 49 1.0 3.0 0.00 0.05 0.02 85 1020.5
20260508092324 49 55 0.0 4.0 0.00 0.05 0.02 85 1020.6
20260508091324 49 44 1.0 5.0 0.00 0.05 0.02 85 1020.6
20260508090324 50 291 0.0 0.0 0.01 0.05 0.02 86 1020.5
20260508085324 49 291 0.0 0.0 0.01 0.05 0.02 86 1020.5
20260508084324 49 292 0.0 0.0 0.01 0.05 0.02 87 1020.5
20260508083324 49 291 0.0 0.0 0.01 0.06 0.02 87 1020.5
20260508082324 49 292 0.0 0.0 0.01 0.06 0.02 87 1020.4
20260508081324 49 291 0.0 3.0 0.01 0.06 0.02 87 1020.4
20260508080324 49 290 0.0 3.0 0.00 0.05 0.01 87 1020.3
20260508075324 49 39 1.0 2.0 0.00 0.05 0.01 87 1020.3
20260508074324 49 12 1.0 3.0 0.00 0.05 0.01 87 1020.2
20260508073324 48 278 1.0 3.0 0.00 0.05 0.01 87 1020.2
20260508072324 48 47 1.0 6.0 0.00 0.05 0.01 87 1020.1
20260508071324 48 35 1.0 4.0 0.00 0.05 0.01 86 1020.0
20260508070324 47 285 1.0 3.0 0.00 0.05 0.01 84 1019.9
20260508065324 47 284 2.0 4.0 0.00 0.05 0.01 83 1019.8
20260508064324 47 280 1.0 3.0 0.00 0.05 0.01 81 1019.7
20260508063324 47 69 0.0 0.0 0.00 0.06 0.01 81 1019.7
20260508062324 47 73 0.0 0.0 0.00 0.06 0.01 80 1019.7
20260508061324 46 73 0.0 0.0 0.00 0.06 0.01 80 1019.5
20260508060324 46 73 0.0 0.0 0.00 0.06 0.01 80 1019.5
20260508055324 46 73 0.0 2.0 0.00 0.06 0.01 81 1019.4
20260508054324 45 73 0.0 1.0 0.00 0.06 0.01 81 1019.4
20260508053324 45 73 1.0 2.0 0.00 0.07 0.01 81 1019.3
20260508052324 45 74 1.0 1.0 0.00 0.07 0.01 81 1019.3
20260508051324 45 76 2.0 3.0 0.01 0.07 0.01 81 1019.2
20260508050324 45 78 0.0 2.0 0.01 0.07 0.01 80 1019.2
20260508045325 45 95 0.0 0.0 0.01 0.07 0.01 81 1019.1
20260508044324 45 95 0.0 0.0 0.01 0.07 0.01 81 1019.1
20260508043324 45 96 0.0 0.0 0.01 0.07 0.01 81 1018.9
20260508042324 44 96 0.0 0.0 0.01 0.07 0.01 81 1018.9
20260508041325 44 96 0.0 0.0 0.00 0.06 0.00 81 1018.8
20260508040325 44 97 0.0 0.0 0.00 0.06 0.00 82 1018.8
20260508035325 44 97 0.0 2.0 0.00 0.06 0.00 82 1018.7
20260508034325 44 97 2.0 3.0 0.00 0.06 0.00 82 1018.7
20260508033325 45 88 0.0 3.0 0.00 0.06 0.00 82 1018.8
20260508032325 45 81 0.0 2.0 0.00 0.06 0.00 81 1018.7
20260508031325 45 84 0.0 0.0 0.00 0.06 0.00 82 1018.7
20260508030325 45 85 0.0 0.0 0.00 0.06 0.00 81 1018.7
20260508025325 45 85 0.0 0.0 0.00 0.06 0.00 81 1018.8
20260508024325 45 85 0.0 0.0 0.00 0.06 0.00 81 1018.8
20260508023325 45 85 0.0 0.0 0.00 0.07 0.00 82 1018.9
20260508022325 45 85 0.0 0.0 0.00 0.07 0.00 81 1019.0
20260508021325 45 84 0.0 0.0 0.00 0.07 0.00 82 1019.0
20260508020325 45 84 0.0 0.0 0.00 0.07 0.00 82 1019.1
20260508015325 45 85 0.0 0.0 0.00 0.07 0.00 82 1019.0
20260508014325 45 85 0.0 0.0 0.00 0.07 0.00 82 1019.0
20260508013325 45 84 0.0 0.0 0.00 0.08 0.00 82 1018.9
20260508012325 45 85 0.0 0.0 0.00 0.08 0.00 82 1019.0
20260508011325 45 85 0.0 0.0 0.00 0.08 0.00 82 1018.9
20260508010325 45 85 0.0 0.0 0.00 0.08 0.00 82 1018.9
20260508005325 45 85 0.0 0.0 0.00 0.08 0.00 82 1018.9
20260508004325 45 85 0.0 0.0 0.00 0.08 0.00 82 1018.9
20260508003325 45 85 0.0 0.0 0.00 0.08 0.00 83 1018.9
20260508002325 45 85 0.0 0.0 0.00 0.08 0.00 82 1018.9
20260508001325 45 85 0.0 0.0 0.00 0.08 0.00 82 1018.9
20260508000327 45 85 0.0 0.0 0.00 0.08 0.00 82 1018.9
20260507235325 45 85 0.0 0.0 0.00 0.08 0.00 82 1019.0
20260507234325 45 85 0.0 0.0 0.00 0.08 0.00 83 1019.1
20260507233325 45 85 0.0 0.0 0.00 0.08 0.00 83 1019.0
20260507232326 45 85 0.0 0.0 0.00 0.08 0.00 83 1019.1
20260507231325 45 85 0.0 0.0 0.00 0.08 0.00 83 1019.0
20260507230325 45 85 0.0 0.0 0.00 0.08 0.00 83 1019.0
20260507225325 45 85 0.0 0.0 0.00 0.08 0.00 83 1018.9
20260507224325 45 85 0.0 0.0 0.00 0.08 0.00 84 1018.8
20260507223325 45 84 0.0 0.0 0.00 0.09 0.00 84 1018.8
20260507222325 45 85 0.0 0.0 0.00 0.09 0.00 84 1018.9
20260507221325 45 85 0.0 0.0 0.00 0.09 0.09 84 1018.9
20260507220325 45 85 0.0 0.0 0.00 0.09 0.09 84 1018.7
20260507215325 45 85 0.0 0.0 0.00 0.09 0.09 84 1018.7
20260507214325 45 85 0.0 0.0 0.00 0.09 0.09 84 1018.6
20260507213325 45 85 0.0 0.0 0.00 0.09 0.09 84 1018.5
20260507212325 45 85 0.0 0.0 0.00 0.09 0.09 84 1018.6
20260507211326 46 85 0.0 0.0 0.00 0.09 0.09 85 1018.7
20260507210325 46 85 0.0 0.0 0.01 0.09 0.09 85 1018.6
20260507205325 46 84 2.0 3.0 0.01 0.09 0.09 85 1018.5
20260507204326 46 101 3.0 6.0 0.01 0.09 0.09 85 1018.5
20260507203326 46 90 2.0 3.0 0.01 0.09 0.09 85 1018.5
20260507202326 46 90 2.0 4.0 0.01 0.09 0.09 85 1018.5
20260507201326 46 90 2.0 3.0 0.01 0.09 0.09 85 1018.3
20260507200326 46 92 0.0 4.0 0.00 0.08 0.08 85 1018.4
20260507195326 46 9 0.0 0.0 0.00 0.08 0.08 85 1018.3
20260507194326 46 5 0.0 0.0 0.00 0.08 0.08 85 1018.3
20260507193326 46 5 0.0 0.0 0.00 0.09 0.08 85 1018.2
20260507192326 46 5 0.0 0.0 0.00 0.09 0.08 85 1018.2
20260507191326 46 5 0.0 0.0 0.00 0.09 0.08 86 1018.1
20260507190326 46 5 0.0 0.0 0.00 0.09 0.08 86 1018.1
20260507185326 46 5 0.0 2.0 0.00 0.09 0.08 86 1018.0
20260507184326 46 331 0.0 0.0 0.00 0.09 0.08 86 1017.9
20260507183326 46 328 0.0 0.0 0.00 0.09 0.08 86 1017.8
20260507182326 46 328 0.0 0.0 0.00 0.09 0.08 86 1017.7
20260507181326 46 327 1.0 3.0 0.00 0.09 0.08 86 1017.7
20260507180326 46 15 0.0 0.0 0.00 0.09 0.08 86 1017.6
20260507175326 46 15 0.0 0.0 0.00 0.09 0.08 86 1017.6
20260507174326 46 15 0.0 0.0 0.00 0.09 0.08 86 1017.5
20260507173326 46 30 1.0 2.0 0.00 0.09 0.08 86 1017.3
20260507172326 46 331 0.0 4.0 0.00 0.09 0.08 87 1017.1
20260507171326 46 331 1.0 3.0 0.00 0.09 0.08 86 1017.1
20260507170326 46 349 2.0 6.0 0.00 0.09 0.08 87 1017.0
20260507165326 47 288 3.0 5.0 0.00 0.09 0.08 87 1017.0
20260507164326 47 318 2.0 6.0 0.01 0.09 0.08 86 1017.0